Snowfall_Accumulation
0.0 0.0 0.0 0.0 0.0 0.0 0.0 0.0 0.0 0.0 0.0 0.0 0.0 0.0 0.0 0.0 0.0 0.0 0.0 0.0 0.0 0.0 0.0 0.0 0.0 0.0 0.0 0.0 0.0 0.0 0.0 0.0 0.0 0.0 0.0 0.0 0.0 0.0 0.0 0.0 0.0 0.0 0.0 0.0
0.0 0.0 0.0 0.0 0.0 0.0 0.0 0.0 0.0 0.0 0.0 0.0 0.0 0.0 0.0 0.0 0.0 0.0 0.0 0.0 0.0 0.0 0.0 0.0 0.0 0.0 0.0 0.0 0.0 0.0 0.0 0.0 0.0 0.0 0.0 0.0 0.0 0.0 0.0 0.0 0.0 0.0 0.0 0.0
0.0 0.0 0.0 0.0 0.0 0.0 0.0 0.0 0.0 0.0 0.0 0.0 0.0 0.0 0.0 0.0 0.0 0.0 0.0 0.0 0.0 0.0 0.0 0.0 0.0 0.0 0.0 0.0 0.0 0.0 0.0 0.0 0.0 0.0 0.0 0.0 0.0 0.0 0.0 0.0 0.0 0.0 0.0 0.0
0.0 0.0 0.0 0.0 0.0 0.0 0.0 0.0 0.0 0.0 0.0 0.0 0.0 0.0 0.0 0.0 0.0 0.0 0.0 0.0 0.0 0.0 0.0 0.0 0.0 0.0 0.0 0.0 0.0 0.0 0.0 0.0 0.0 0.0 0.0 0.0 0.0 0.0 0.0 0.0 0.0 0.0 0.0 0.0
0.0 0.0 0.0 0.0 0.0 0.0 0.0 0.0 0.0 0.0 0.0 0.0 0.0 0.0 0.0 0.0 0.0 0.0 0.0 0.0 0.0 0.0 0.0 0.0 0.0 0.0 0.0 0.0 0.0 0.0 0.0 0.0 0.0 0.0 0.0 0.0 0.0 0.0 0.0 0.0 0.0 0.0 0.0 0.0
0.0 0.0 0.0 0.0 0.0 0.0 0.0 0.0 0.0 0.0 0.0 0.1 0.0 0.0 0.0 0.0 0.0 0.0 0.0 0.0 0.0 0.0 0.0 0.0 0.0 0.0 0.0 0.0 0.0 0.0 0.0 0.0 0.0 0.0 0.0 0.0 0.0 0.0 0.0 0.0 0.0 0.0 0.0 0.0
0.0 0.0 0.0 0.0 0.0 0.0 0.0 0.0 0.2 0.2 0.8 0.3 0.0 0.0 0.0 0.0 0.0 0.0 0.0 0.0 0.0 0.0 0.0 0.0 0.0 0.0 0.0 0.0 0.0 0.0 0.0 0.0 0.0 0.0 0.0 0.0 0.0 0.0 0.0 0.0 0.0 0.0 0.0 0.0
0.0 0.0 0.0 0.0 0.0 0.0 0.0 0.0 0.2 0.9 0.7 0.2 0.0 0.1 0.0 0.0 0.0 0.0 0.0 0.0 0.0 0.0 0.0 0.0 0.0 0.0 0.0 0.0 0.0 0.0 0.0 0.0 0.0 0.0 0.0 0.0 0.0 0.0 0.0 0.0 0.0 0.0 0.0 0.0
0.0 0.0 0.0 0.0 0.0 0.0 0.0 0.0 0.0 0.1 2.3 0.9 0.0 0.0 0.0 0.0 0.0 0.0 0.0 0.0 0.0 0.0 0.0 0.0 0.0 0.0 0.0 0.0 0.0 0.0 0.0 0.0 0.0 0.0 0.0 0.0 0.0 0.0 0.0 0.0 0.0 0.0 0.0 0.0
0.0 0.0 0.0 0.0 0.0 0.0 0.0 0.0 0.1 0.1 2.9 1.9 0.0 0.0 0.0 0.0 0.0 0.0 0.0 0.0 0.0 0.0 0.0 0.0 0.0 0.0 0.0 0.0 0.0 0.0 0.0 0.0 0.0 0.0 0.0 0.0 0.0 0.0 0.0 0.0 0.0 0.0 0.0 0.0
0.0 0.0 0.0 0.0 0.0 0.0 0.0 0.0 0.0 0.0 0.2 1.5 1.1 0.0 0.0 0.0 0.0 0.0 0.0 0.0 0.0 0.0 0.0 0.0 0.0 0.0 0.0 0.0 0.0 0.0 0.0 0.0 0.0 0.0 0.0 0.0 0.0 0.0 0.0 0.0 0.0 0.0 0.0 0.0
0.0 0.0 0.9 0.0 0.0 0.0 0.0 0.0 0.0 0.2 0.2 0.3 0.5 0.6 0.0 0.0 0.0 0.0 0.0 0.0 0.0 0.0 0.0 0.0 0.0 0.0 0.0 0.0 0.0 0.0 0.0 0.0 0.0 0.0 0.0 0.0 0.0 0.0 0.0 0.0 0.0 0.0 0.0 0.0
0.0 0.3 3.2 0.6 0.0 0.0 0.0 0.0 0.0 0.0 0.2 1.2 2.9 0.4 0.0 0.0 0.0 0.0 0.0 0.0 0.0 0.0 0.0 0.0 0.0 0.0 0.0 0.0 0.0 0.0 0.0 0.0 0.0 0.0 0.0 0.0 0.0 0.0 0.0 0.0 0.0 0.0 0.0 0.0
nan 0.0 0.1 0.4 0.0 0.0 0.0 0.0 0.0 0.0 1.9 0.4 0.3 0.0 0.0 0.0 0.0 0.0 0.0 0.0 0.0 0.0 0.0 0.0 0.0 0.0 0.0 0.0 0.0 0.0 0.0 0.0 0.0 0.0 0.0 0.0 0.0 0.0 0.0 0.0 0.0 0.0 0.0 0.0
0.0 1.9 0.0 0.0 0.0 0.0 0.0 0.0 0.0 0.0 0.0 0.2 0.0 0.0 0.0 0.0 0.0 0.0 0.0 0.0 0.0 0.0 0.0 0.0 0.0 0.0 0.0 0.0 0.0 0.0 0.0 0.0 0.0 0.0 0.0 0.0 0.0 0.0 0.0 0.0 0.1 0.1 0.1 0.0
0.0 2.4 0.1 1.4 0.0 0.0 0.1 0.0 0.0 0.0 0.0 0.0 0.0 0.0 0.0 0.0 0.0 0.0 0.0 0.0 0.0 0.0 0.0 0.0 0.0 0.0 0.0 0.0 0.0 0.0 0.0 0.0 0.0 0.0 0.0 0.0 0.1 0.1 0.1 0.2 0.1 0.1 0.1 0.1
0.2 2.2 5.4 14.4 0.4 0.5 9.5 0.1 0.0 0.0 0.0 0.0 0.0 0.0 0.0 0.0 0.0 0.0 0.0 0.0 0.0 0.0 0.0 0.0 0.0 0.0 0.0 0.0 0.0 0.0 0.0 0.0 0.1 0.1 0.2 0.2 0.2 0.2 0.2 0.2 0.2 0.2 0.2 0.2
1.2 3.2 5.0 16.7 7.1 35.9 1.7 0.0 0.0 0.0 0.0 0.0 0.0 0.0 0.0 0.0 0.0 0.0 0.0 0.0 0.0 0.0 0.0 0.0 0.0 0.0 0.0 0.0 0.0 0.0 0.0 0.1 0.1 0.2 0.5 0.5 0.3 0.8 0.3 0.3 0.4 0.3 0.2 0.3
0.0 0.6 12.4 29.8 19.5 0.6 0.0 0.0 0.0 0.0 0.0 0.0 0.0 0.0 0.0 0.0 0.0 0.0 0.0 0.0 0.0 0.0 0.0 0.0 0.0 0.0 0.0 0.0 0.0 0.0 0.1 0.1 0.1 0.1 0.2 0.3 0.5 1.3 0.6 2.2 0.7 0.5 1.0 0.8
0.1 0.0 1.3 25.3 25.1 23.7 0.0 0.0 0.0 0.0 0.6 0.0 0.0 0.0 0.0 0.0 0.1 0.0 0.0 0.0 0.0 0.0 0.0 0.0 0.0 0.0 0.0 0.0 0.0 0.1 0.1 0.3 0.2 0.1 0.1 0.2 0.6 2.6 2.1 0.7 1.5 1.8 1.9 1.9
7.5 13.2 25.2 22.1 23.2 8.2 0.2 0.1 0.0 5.1 0.8 0.5 0.1 0.0 0.1 0.2 0.0 0.0 0.0 0.0 0.0 0.0 0.0 0.0 0.0 0.0 0.0 0.1 0.1 0.2 0.2 0.3 0.3 0.7 0.7 1.0 0.9 3.1 1.4 1.7 1.2 2.5 3.6 2.2
2.4 10.5 23.4 17.7 23.4 28.9 0.0 0.0 0.3 0.2 0.1 0.2 0.1 0.0 0.0 0.0 0.0 0.0 0.0 0.0 0.0 0.0 0.0 0.0 0.0 0.0 0.0 0.2 0.2 0.4 0.3 0.4 1.2 1.6 1.8 2.4 4.0 3.2 3.2 7.2 4.2 5.7 5.2 5.8
5.0 0.6 4.6 1.1 4.3 0.0 0.0 0.1 0.0 0.0 0.2 0.1 0.1 0.0 0.0 0.0 0.0 0.0 0.0 0.0 0.0 0.0 0.0 0.0 0.6 0.9 0.0 1.2 0.8 1.4 0.9 1.5 2.5 4.9 6.9 6.8 5.7 5.9 5.9 8.7 6.3 7.1 6.0 7.5
0.3 0.0 1.1 1.3 0.2 0.1 0.1 0.0 0.0 0.0 0.0 0.0 0.0 0.0 0.0 0.0 0.0 0.0 0.0 0.0 0.0 0.6 1.0 1.4 2.1 2.6 2.4 2.2 2.6 2.4 2.7 2.9 9.1 9.1 5.1 4.1 5.5 3.8 4.8 5.8 6.2 10.0 8.2 7.5
0.5 0.3 1.4 1.9 0.1 0.1 0.1 0.1 0.0 0.0 0.0 0.0 0.0 0.0 0.0 0.0 0.0 0.0 0.5 0.8 0.5 1.0 1.3 1.9 2.4 2.4 2.3 2.0 2.4 3.6 3.4 3.9 5.8 6.6 3.7 4.2 5.9 6.7 4.7 4.5 6.8 6.6 4.3 8.7
0.3 0.1 0.4 1.5 0.0 0.0 0.0 0.0 0.0 0.0 0.0 0.1 0.1 0.2 0.2 0.2 0.2 0.3 0.6 0.5 0.7 1.1 1.4 1.9 2.3 2.2 2.7 3.3 3.8 4.9 6.3 5.9 6.2 4.0 5.7 5.5 5.4 4.5 4.2 4.6 5.0 nan nan nan
Water_Equivalent
0.00 0.00 0.00 0.00 0.00 0.00 0.00 0.00 0.00 0.00 0.00 0.00 0.00 0.00 0.00 0.00 0.00 0.00 0.00 0.00 0.00 0.00 0.00 0.00 0.00 0.00 0.00 0.00 0.00 0.00 0.00 0.00 0.00 0.00 0.00 0.00 0.00 0.00 0.00 0.00 0.00 0.00 0.00 0.00
0.00 0.00 0.00 0.00 0.00 0.00 0.00 0.00 0.00 0.00 0.00 0.00 0.00 0.00 0.00 0.00 0.00 0.00 0.00 0.00 0.00 0.00 0.00 0.00 0.00 0.00 0.00 0.00 0.00 0.00 0.00 0.00 0.00 0.00 0.00 0.00 0.00 0.00 0.00 0.00 0.00 0.00 0.00 0.00
0.00 0.00 0.00 0.00 0.00 0.00 0.00 0.00 0.00 0.00 0.00 0.00 0.00 0.00 0.00 0.00 0.00 0.00 0.00 0.00 0.00 0.00 0.00 0.00 0.00 0.00 0.00 0.00 0.00 0.00 0.00 0.00 0.00 0.00 0.00 0.00 0.00 0.00 0.00 0.00 0.00 0.00 0.00 0.00
0.00 0.00 0.00 0.00 0.00 0.00 0.00 0.00 0.00 0.00 0.00 0.00 0.00 0.00 0.00 0.00 0.00 0.00 0.00 0.00 0.00 0.00 0.00 0.00 0.00 0.00 0.00 0.00 0.00 0.00 0.00 0.00 0.00 0.00 0.00 0.00 0.00 0.00 0.00 0.00 0.00 0.00 0.00 0.00
0.00 0.00 0.00 0.00 0.00 0.00 0.00 0.00 0.00 0.00 0.00 0.00 0.00 0.00 0.00 0.00 0.00 0.00 0.00 0.00 0.00 0.00 0.00 0.00 0.00 0.00 0.00 0.00 0.00 0.00 0.00 0.00 0.00 0.00 0.00 0.00 0.00 0.00 0.00 0.00 0.00 0.00 0.00 0.00
0.00 0.00 0.00 0.00 0.00 0.00 0.00 0.00 0.00 0.00 0.00 0.02 0.00 0.00 0.00 0.00 0.00 0.00 0.00 0.00 0.00 0.00 0.00 0.00 0.00 0.00 0.00 0.00 0.00 0.00 0.00 0.00 0.00 0.00 0.00 0.00 0.00 0.00 0.00 0.00 0.00 0.00 0.00 0.00
0.00 0.00 0.00 0.00 0.00 0.00 0.00 0.00 0.04 0.06 0.19 0.07 0.00 0.01 0.00 0.00 0.00 0.00 0.00 0.00 0.00 0.00 0.00 0.00 0.00 0.00 0.00 0.00 0.00 0.00 0.00 0.00 0.00 0.00 0.00 0.00 0.00 0.00 0.00 0.00 0.00 0.00 0.00 0.00
0.00 0.00 0.00 0.00 0.00 0.00 0.00 0.00 0.05 0.18 0.17 0.06 0.01 0.02 0.00 0.00 0.00 0.00 0.00 0.00 0.00 0.00 0.00 0.00 0.00 0.00 0.00 0.00 0.00 0.00 0.00 0.00 0.00 0.00 0.00 0.00 0.00 0.00 0.00 0.00 0.00 0.00 0.00 0.00
0.00 0.00 0.00 0.00 0.00 0.00 0.00 0.01 0.00 0.01 0.42 0.23 0.00 0.00 0.00 0.00 0.00 0.00 0.00 0.00 0.00 0.00 0.00 0.00 0.00 0.00 0.00 0.00 0.00 0.00 0.00 0.00 0.00 0.00 0.00 0.00 0.00 0.00 0.00 0.00 0.00 0.00 0.00 0.00
0.00 0.00 0.00 0.00 0.00 0.00 0.00 0.00 0.03 0.04 0.53 0.33 0.00 0.00 0.00 0.00 0.00 0.00 0.00 0.00 0.00 0.00 0.00 0.00 0.00 0.00 0.00 0.00 0.00 0.00 0.00 0.00 0.00 0.00 0.00 0.00 0.00 0.00 0.00 0.00 0.00 0.00 0.00 0.00
0.00 0.01 0.00 0.00 0.00 0.00 0.00 0.00 0.00 0.00 0.04 0.32 0.23 0.01 0.00 0.00 0.00 0.00 0.00 0.00 0.00 0.00 0.00 0.00 0.00 0.00 0.00 0.00 0.00 0.00 0.00 0.00 0.00 0.00 0.00 0.00 0.00 0.00 0.00 0.00 0.00 0.00 0.00 0.00
0.00 0.00 0.23 0.00 0.00 0.00 0.00 0.00 0.00 0.08 0.04 0.07 0.14 0.12 0.00 0.00 0.00 0.00 0.00 0.00 0.00 0.00 0.00 0.00 0.00 0.00 0.00 0.00 0.00 0.00 0.00 0.00 0.00 0.00 0.00 0.00 0.00 0.00 0.00 0.00 0.00 0.00 0.00 0.00
0.00 0.09 0.74 0.14 0.00 0.00 0.00 0.00 0.00 0.00 0.05 0.27 0.60 0.09 0.00 0.00 0.00 0.00 0.00 0.00 0.00 0.00 0.00 0.00 0.00 0.00 0.00 0.00 0.00 0.00 0.00 0.00 0.00 0.00 0.00 0.00 0.00 0.00 0.00 0.00 0.00 0.00 0.00 0.00
nan 0.01 0.03 0.12 0.00 0.00 0.01 0.00 0.00 0.00 0.45 0.11 0.09 0.01 0.00 0.00 0.00 0.00 0.00 0.00 0.00 0.00 0.00 0.00 0.00 0.00 0.00 0.00 0.00 0.00 0.00 0.00 0.00 0.00 0.00 0.00 0.00 0.00 0.00 0.00 0.00 0.00 0.00 0.00
0.00 0.55 0.00 0.00 0.00 0.00 0.00 0.00 0.00 0.00 0.00 0.06 0.00 0.00 0.00 0.00 0.00 0.00 0.00 0.00 0.00 0.00 0.00 0.00 0.00 0.00 0.00 0.00 0.00 0.00 0.00 0.00 0.00 0.00 0.00 0.00 0.00 0.00 0.00 0.01 0.02 0.02 0.02 0.00
0.00 0.66 0.02 0.36 0.00 0.00 0.03 0.00 0.00 0.00 0.00 0.00 0.00 0.00 0.00 0.00 0.00 0.00 0.00 0.00 0.00 0.00 0.00 0.00 0.00 0.00 0.00 0.00 0.00 0.00 0.00 0.00 0.00 0.00 0.00 0.00 0.02 0.03 0.04 0.04 0.03 0.03 0.03 0.02
0.06 0.65 1.53 2.65 0.09 0.10 1.42 0.02 0.00 0.00 0.00 0.00 0.00 0.00 0.00 0.00 0.00 0.00 0.00 0.00 0.00 0.00 0.00 0.00 0.00 0.00 0.00 0.00 0.00 0.00 0.00 0.00 0.02 0.03 0.05 0.05 0.04 0.05 0.04 0.04 0.04 0.03 0.03 0.03
0.38 0.89 1.40 3.44 1.55 4.49 0.30 0.00 0.00 0.00 0.00 0.00 0.00 0.00 0.00 0.00 0.00 0.00 0.00 0.00 0.00 0.00 0.00 0.00 0.00 0.00 0.00 0.00 0.00 0.00 0.00 0.02 0.02 0.04 0.09 0.08 0.05 0.12 0.05 0.05 0.06 0.04 0.04 0.05
0.00 0.15 2.57 4.54 2.88 0.14 0.01 0.00 0.00 0.00 0.00 0.00 0.00 0.00 0.00 0.00 0.00 0.00 0.00 0.00 0.00 0.00 0.00 0.00 0.00 0.00 0.00 0.00 0.00 0.01 0.02 0.02 0.02 0.02 0.04 0.05 0.08 0.19 0.09 0.28 0.10 0.07 0.14 0.10
0.04 0.01 0.40 4.12 3.93 2.97 0.01 0.00 0.00 0.00 0.15 0.01 0.00 0.00 0.00 0.00 0.04 0.00 0.00 0.00 0.00 0.00 0.00 0.00 0.00 0.00 0.00 0.00 0.00 0.02 0.03 0.05 0.03 0.03 0.03 0.04 0.09 0.34 0.26 0.10 0.20 0.25 0.26 0.24
1.20 2.64 4.17 3.57 3.78 1.50 0.06 0.04 0.00 0.71 0.18 0.13 0.04 0.01 0.02 0.07 0.00 0.00 0.00 0.00 0.00 0.00 0.00 0.00 0.00 0.00 0.00 0.01 0.03 0.03 0.04 0.05 0.06 0.10 0.10 0.13 0.12 0.38 0.19 0.23 0.18 0.36 0.45 0.28
0.35 1.49 3.34 2.72 3.51 3.68 0.01 0.01 0.05 0.07 0.03 0.04 0.02 0.00 0.01 0.00 0.00 0.00 0.00 0.00 0.00 0.00 0.00 0.00 0.00 0.00 0.00 0.04 0.05 0.07 0.05 0.07 0.15 0.20 0.21 0.27 0.47 0.40 0.41 0.87 0.54 0.74 0.67 0.70
0.70 0.12 0.80 0.23 0.81 0.01 0.00 0.03 0.01 0.01 0.05 0.03 0.01 0.01 0.00 0.00 0.00 0.00 0.00 0.00 0.00 0.00 0.00 0.00 0.10 0.12 0.00 0.17 0.13 0.19 0.13 0.17 0.25 0.50 0.73 0.72 0.66 0.68 0.70 1.03 0.68 0.93 0.78 0.90
0.05 0.00 0.24 0.24 0.03 0.01 0.02 0.00 0.01 0.00 0.01 0.00 0.01 0.01 0.00 0.00 0.00 0.00 0.00 0.01 0.00 0.09 0.14 0.17 0.23 0.27 0.26 0.23 0.27 0.30 0.27 0.28 1.00 1.01 0.53 0.41 0.57 0.47 0.56 0.74 0.86 1.27 1.00 0.86
0.10 0.07 0.28 0.34 0.02 0.02 0.03 0.02 0.00 0.00 0.00 0.00 0.00 0.00 0.00 0.00 0.00 0.00 0.09 0.12 0.08 0.11 0.14 0.20 0.25 0.25 0.23 0.20 0.22 0.35 0.32 0.40 0.61 0.67 0.35 0.48 0.71 0.81 0.51 0.49 0.81 0.72 0.52 1.05
0.05 0.02 0.07 0.23 0.01 0.00 0.00 0.00 0.00 0.00 0.00 0.02 0.02 0.03 0.04 0.04 0.04 0.05 0.10 0.07 0.09 0.14 0.16 0.20 0.23 0.21 0.22 0.28 0.32 0.45 0.62 0.60 0.62 0.37 0.57 0.59 0.61 0.51 0.46 0.47 0.50 nan nan nan
SL_Ratio
nan nan nan nan nan nan nan nan nan nan nan nan nan nan nan nan nan nan nan nan nan nan nan nan nan nan nan nan nan nan nan nan nan nan nan nan nan nan nan nan nan nan nan nan
nan nan nan nan nan nan nan nan nan nan nan nan nan nan nan nan nan nan nan nan nan nan nan nan nan nan nan nan nan nan nan nan nan nan nan nan nan nan nan nan nan nan nan nan
nan nan nan nan nan nan nan nan nan nan nan nan nan nan nan nan nan nan nan nan nan nan nan nan nan nan nan nan nan nan nan nan nan nan nan nan nan nan nan nan nan nan nan nan
nan nan nan nan nan nan nan nan nan nan nan 5.7 nan 10.0 nan nan nan nan nan nan nan nan nan nan nan nan nan nan nan nan nan nan nan nan nan nan nan nan nan nan nan nan nan nan
0.0 nan nan nan nan nan nan nan nan nan nan nan 0.0 0.0 nan nan nan nan nan nan nan nan nan nan nan nan nan nan nan nan nan nan nan nan nan nan nan nan nan nan nan nan nan nan
nan nan nan nan nan nan nan nan nan nan 5.0 4.5 nan nan nan nan nan nan nan nan nan nan nan nan nan nan nan nan nan nan nan nan nan nan nan nan nan nan nan nan nan nan nan nan
nan nan nan nan nan nan nan 6.0 5.3 3.9 4.2 3.9 nan 3.5 nan nan nan nan nan nan nan nan nan nan nan nan nan nan nan nan nan nan nan nan nan nan nan nan nan nan nan nan nan nan
nan nan nan nan nan 0.0 nan 10.0 3.8 5.0 4.3 3.7 4.1 4.0 nan nan nan nan nan nan nan nan nan nan nan nan nan nan nan nan nan nan nan nan nan nan nan nan nan nan nan nan nan nan
nan 3.3 nan nan nan nan nan 5.0 nan 4.4 5.6 4.0 nan nan nan nan nan nan nan nan nan nan nan nan nan nan nan nan nan nan nan nan nan nan nan nan nan nan nan nan nan nan nan nan
nan 3.3 nan nan nan nan nan nan 4.1 3.8 5.5 5.8 nan nan nan nan nan nan nan nan nan nan nan nan nan nan nan nan nan nan nan nan nan nan nan nan nan nan nan nan nan nan nan nan
nan 3.0 nan nan nan nan nan nan nan nan 3.9 4.7 4.7 3.9 nan nan nan nan nan nan nan nan nan nan nan nan nan nan nan nan nan nan nan nan nan nan nan nan nan nan nan nan nan nan
nan 0.0 3.7 5.0 nan nan nan nan nan 3.1 4.5 3.9 3.6 4.6 nan nan nan nan nan nan nan nan nan nan nan nan nan nan nan nan nan nan nan nan nan nan nan nan nan nan nan nan nan nan
nan 2.9 4.4 4.2 5.0 nan nan nan nan nan 3.3 4.5 4.8 4.3 nan nan nan nan nan nan nan nan nan nan nan nan nan nan nan nan nan nan nan nan nan nan nan nan nan nan nan nan nan nan
nan 2.4 3.3 3.5 4.7 nan 3.7 3.0 5.0 nan 4.3 3.4 3.3 2.4 nan nan nan nan nan nan nan nan nan nan nan nan nan nan nan nan nan nan nan nan nan nan nan nan nan nan nan nan nan nan
nan 3.5 3.1 nan nan nan 2.5 4.0 nan 4.5 nan 3.8 nan nan nan nan nan nan nan nan nan nan nan nan nan nan nan nan nan nan nan nan nan nan nan nan nan nan 2.9 3.2 3.3 3.4 3.7 nan
nan 3.6 2.6 3.9 3.3 nan 3.1 nan nan nan nan nan nan nan nan nan nan nan nan nan nan nan nan nan nan nan nan nan nan nan nan nan nan nan 0.0 5.0 3.4 3.8 4.0 4.0 4.1 4.2 4.6 4.6
2.7 3.4 3.5 5.4 4.9 4.7 6.7 3.3 nan nan nan nan 2.5 nan nan nan nan nan nan nan nan nan nan nan nan nan nan nan nan nan nan nan 3.7 4.1 4.6 4.7 4.7 5.0 4.7 4.8 5.4 5.7 5.5 5.3
3.3 3.6 3.6 4.9 4.6 8.0 5.6 nan nan nan nan nan nan nan nan nan nan nan nan nan nan nan nan nan nan nan nan nan nan nan 2.5 3.5 4.0 4.8 5.6 5.9 5.8 6.4 6.2 6.4 6.4 6.1 5.8 6.2
3.3 3.9 4.8 6.6 6.7 4.5 3.8 nan nan 5.0 nan nan nan nan nan nan nan nan nan nan nan nan nan nan nan nan nan nan nan 3.3 4.4 4.5 4.5 5.1 5.4 5.8 6.3 7.0 6.8 7.9 6.9 7.0 7.2 7.3
3.1 2.5 3.3 6.1 6.4 8.0 4.0 0.0 nan nan 4.2 2.5 2.9 nan 0.0 0.0 3.2 nan nan nan nan nan nan nan nan nan nan nan nan 4.0 5.0 6.2 6.1 5.3 5.4 5.9 6.5 7.7 7.9 7.1 7.5 7.0 7.1 8.0
6.2 5.0 6.0 6.2 6.1 5.5 3.1 3.3 nan 7.2 4.3 3.9 3.5 3.1 3.1 2.9 nan nan nan nan nan nan nan nan nan nan nan 3.9 4.2 5.2 5.5 6.0 5.3 6.9 7.6 7.9 7.6 8.2 7.4 7.1 6.7 7.1 8.0 7.8
6.8 7.1 7.0 6.5 6.7 7.9 2.9 3.8 5.1 3.5 3.7 3.5 3.5 2.5 3.0 nan nan nan nan nan nan nan nan nan nan nan nan 4.8 4.7 6.0 6.2 5.9 7.6 8.0 8.9 8.7 8.5 8.0 7.8 8.3 7.7 7.6 7.7 8.3
7.1 5.2 5.8 4.7 5.3 3.0 0.0 3.3 2.5 3.0 3.3 3.5 3.7 3.9 nan nan 3.3 2.5 nan 2.5 3.3 nan nan nan 5.4 7.1 10.0 7.1 6.3 7.0 7.1 9.2 10.0 9.7 9.4 9.4 8.7 8.7 8.4 8.5 9.2 7.7 7.7 8.3
4.9 4.0 4.6 5.5 5.0 4.3 3.9 5.0 3.5 3.3 3.2 2.5 3.8 3.8 2.5 3.8 2.5 2.9 3.0 4.3 2.1 6.5 7.4 8.2 8.9 9.4 9.2 9.2 9.4 8.0 10.0 10.1 9.0 9.1 9.7 9.9 9.7 8.2 8.6 7.8 7.3 7.9 8.1 8.7
4.5 3.6 5.1 5.6 4.5 4.6 3.9 3.4 2.7 nan nan nan nan nan nan 3.3 4.0 2.0 5.6 6.2 6.2 8.7 9.6 9.5 9.7 9.7 9.7 9.9 10.5 10.1 10.6 9.8 9.4 9.9 10.6 8.8 8.3 8.2 9.1 9.3 8.4 9.1 8.4 8.3
5.2 5.3 5.8 6.3 3.4 3.8 4.0 nan nan nan nan 4.0 4.5 4.9 5.2 4.9 4.9 5.6 6.5 6.4 7.3 8.1 9.1 9.7 10.2 10.7 12.0 11.8 11.6 10.8 10.2 9.7 10.0 10.7 9.9 9.3 8.9 8.8 9.3 9.7 10.0 nan nan nan